This is the latest recevied weather packets stored in our database for station/object W5ADC. If no packets are shown the sender has not sent any weather packets the latest 1 day(s).
| Time | Temp. | Humidity | Pressure | Rain* | Wind** | Luminosity | Snow |
|---|---|---|---|---|---|---|---|
| 1777991900 | 23.89° C | 81% | 1001.4 hPa | 0 mm | 3.13 m/s, 188° | 244 W/m² | - |
| 1777991597 | 23.89° C | 82% | 1001.2 hPa | 0 mm | 4.47 m/s, 199° | 210 W/m² | - |
| 1777991294 | 23.89° C | 82% | 1001.2 hPa | 0 mm | 2.24 m/s, 132° | 202 W/m² | - |
| 1777990992 | 23.33° C | 82% | 1001.2 hPa | 0 mm | 2.24 m/s, 190° | 213 W/m² | - |
| 1777990689 | 23.33° C | 82% | 1001.3 hPa | 0 mm | 2.68 m/s, 195° | 252 W/m² | - |
| 1777990386 | 23.33° C | 83% | 1001.3 hPa | 0 mm | 2.24 m/s, 183° | 254 W/m² | - |
| 1777990082 | 22.78° C | 84% | 1001.4 hPa | 0 mm | 1.79 m/s, 139° | 193 W/m² | - |
| 1777989779 | 22.78° C | 84% | 1001.3 hPa | 0 mm | 2.24 m/s, 187° | 153 W/m² | - |
| 1777989476 | 22.78° C | 84% | 1001.1 hPa | 0 mm | 2.68 m/s, 182° | 141 W/m² | - |
| 1777989172 | 22.78° C | 85% | 1000.7 hPa | 0 mm | 2.24 m/s, 189° | 145 W/m² | - |
| 1777988868 | 22.78° C | 85% | 1001 hPa | 0 mm | 2.68 m/s, 157° | 101 W/m² | - |
| 1777988566 | 22.78° C | 85% | 1000.6 hPa | 0 mm | 1.79 m/s, 222° | 108 W/m² | - |
| 1777988262 | 22.78° C | 85% | 1001.1 hPa | 0 mm | 4.92 m/s, 224° | 101 W/m² | - |
| 1777987959 | 22.78° C | 85% | 1001.1 hPa | 0 mm | 1.34 m/s, 168° | 110 W/m² | - |
| 1777987654 | 22.78° C | 85% | 1001.1 hPa | 0 mm | 2.68 m/s, 199° | 104 W/m² | - |
| 1777987352 | 22.78° C | 85% | 1001.3 hPa | 0 mm | 1.79 m/s, 160° | 91 W/m² | - |
| 1777987049 | 22.78° C | 85% | 1001.4 hPa | 0 mm | 3.58 m/s, 169° | 95 W/m² | - |
| 1777986746 | 22.22° C | 85% | 1001.5 hPa | 0 mm | 2.24 m/s, 117° | 74 W/m² | - |
| 1777986444 | 22.22° C | 85% | 1001.3 hPa | 0 mm | 3.58 m/s, 207° | 74 W/m² | - |
| 1777986143 | 22.22° C | 86% | 1001 hPa | 0 mm | 2.24 m/s, 126° | 74 W/m² | - |
| 1777985839 | 22.22° C | 86% | 1000.8 hPa | 0 mm | 4.92 m/s, 174° | 58 W/m² | - |
| 1777985536 | 22.22° C | 86% | 1000.7 hPa | 0 mm | 3.13 m/s, 105° | 68 W/m² | - |
| 1777985233 | 22.22° C | 86% | 1000.6 hPa | 0 mm | 2.68 m/s, 178° | 60 W/m² | - |
| 1777984930 | 22.22° C | 86% | 1000.6 hPa | 0 mm | 3.58 m/s, 123° | 37 W/m² | - |
| 1777984625 | 22.22° C | 86% | 1000.7 hPa | 0 mm | 2.24 m/s, 178° | 31 W/m² | - |
* Rain latest hour (hover to see other rain measurements)
** Current wind speed in m/s (hover to see current wind gust speed)